Hallock, MN

8:06 AM CDT on April 25, 2017 (GMT -0500)
Hallock Municipal

Weather History for KHCO - August, 2013

Change the Weather History Date:

Thursday, August 22, 2013

  Actual Average Record
Temperature  
Mean Temperature 61 °F -  
Max Temperature 78 °F 74 °F 98 °F (1947)
Min Temperature 44 °F 51 °F 38 °F (1944)
Degree Days  
Heating Degree Days 4    
Growing Degree Days 11 (Base 50)    
Moisture  
Dew Point 48 °F    
Average Humidity 64    
Maximum Humidity 100    
Minimum Humidity 29    
Precipitation  
Precipitation 0.00 in - - ()
Sea Level Pressure  
Sea Level Pressure 30.15 in    
Wind  
Wind Speed 3 mph (NNW)    
Max Wind Speed 9 mph    
Max Gust Speed 24 mph    
Visibility 10 miles    
Events      
Averages and records for this station are not official NWS values.
T = Trace of Precipitation, MM = Missing Value Source: NWS Daily Summary

Daily Weather History Graph

Daily Weather History Graph

Search for Another Location

Airport or City:

Trip Planner

Search our weather history database for the weather conditions in past years. The results will help you decide how hot, cold, wet, or windy it might be!

Date:

Astronomy

Aug. 22, 2013 Rise Set
Actual Time 6:30 AM CDT 8:29 PM CDT
Civil Twilight 5:57 AM CDT 9:02 PM CDT
Nautical Twilight 5:15 AM CDT 9:44 PM CDT
Astronomical Twilight 4:28 AM CDT 10:30 PM CDT
Moon 8:56 PM CDT (8/22) 8:35 AM CDT (8/22)
Length of Visible Light 15h 05m
Length of Day
13h 58m
Waning Gibbous, 96% of the Moon is Illuminated
Aug 22
Waning Gibbous
Aug 28
Last Quarter
Sep 5
New
Sep 12
First Quarter
Sep 19
Full

Hourly Weather History & Observations

Time (CDT) Temp. Windchill Dew Point Humidity Pressure Visibility Wind Dir Wind Speed Gust Speed Precip Events Conditions
12:13 AM 57.2 °F - 48.2 °F 72% 30.11 in 10.0 mi NW 5.8 mph - N/A   Clear
12:33 AM 57.2 °F - 48.2 °F 72% 30.11 in 10.0 mi NW 3.5 mph - N/A   Clear
12:53 AM 55.4 °F - 48.2 °F 77% 30.12 in 10.0 mi NNW 6.9 mph - N/A   Clear
1:13 AM 55.4 °F - 48.2 °F 77% 30.12 in 10.0 mi NNW 6.9 mph - N/A   Clear
1:33 AM 55.4 °F - 48.2 °F 77% 30.12 in 10.0 mi North 8.1 mph - N/A   Clear
1:53 AM 55.4 °F - 48.2 °F 77% 30.13 in 10.0 mi North 5.8 mph - N/A   Clear
2:13 AM 53.6 °F - 48.2 °F 82% 30.13 in 10.0 mi NNW 3.5 mph - N/A   Clear
2:33 AM 51.8 °F - 46.4 °F 82% 30.14 in 10.0 mi Calm Calm - N/A   Clear
2:53 AM 48.2 °F - 46.4 °F 93% 30.14 in 10.0 mi WSW 3.5 mph - N/A   Clear
3:13 AM 48.2 °F - 46.4 °F 93% 30.15 in 10.0 mi WNW 3.5 mph - N/A   Clear
3:33 AM 48.2 °F - 46.4 °F 93% 30.14 in 10.0 mi Calm Calm - N/A   Clear
3:53 AM 48.2 °F - 46.4 °F 93% 30.15 in 10.0 mi Calm Calm - N/A   Clear
4:13 AM 48.2 °F - 46.4 °F 93% 30.16 in 10.0 mi Calm Calm - N/A   Clear
4:33 AM 46.4 °F - 44.6 °F 93% 30.16 in 10.0 mi Calm Calm - N/A   Clear
4:53 AM 46.4 °F - 44.6 °F 93% 30.16 in 10.0 mi Calm Calm - N/A   Clear
5:13 AM 46.4 °F - 44.6 °F 93% 30.16 in 10.0 mi Calm Calm - N/A   Clear
5:33 AM 46.4 °F - 44.6 °F 93% 30.16 in 10.0 mi Calm Calm - N/A   Clear
5:53 AM 44.6 °F 43.1 °F 44.6 °F 100% 30.17 in 10.0 mi SW 3.5 mph - N/A   Clear
6:13 AM 44.6 °F - 44.6 °F 100% 30.18 in 10.0 mi Calm Calm - N/A   Clear
6:33 AM 44.6 °F - 42.8 °F 93% 30.19 in 10.0 mi Calm Calm - N/A   Clear
6:53 AM 46.4 °F - 44.6 °F 93% 30.19 in 10.0 mi Calm Calm - N/A   Clear
7:13 AM 48.2 °F - 44.6 °F 87% 30.20 in 10.0 mi Calm Calm - N/A   Clear
7:33 AM 50.0 °F - 46.4 °F 87% 30.20 in 10.0 mi Calm Calm - N/A   Clear
7:53 AM 53.6 °F - 48.2 °F 82% 30.20 in 10.0 mi Calm Calm - N/A   Clear
8:13 AM 55.4 °F - 50.0 °F 82% 30.20 in 10.0 mi Calm Calm - N/A   Clear
8:33 AM 57.2 °F - 51.8 °F 82% 30.20 in 10.0 mi Calm Calm - N/A   Clear
8:53 AM 59.0 °F - 51.8 °F 77% 30.20 in 10.0 mi Calm Calm - N/A   Clear
9:13 AM 60.8 °F - 51.8 °F 72% 30.20 in 10.0 mi North 4.6 mph - N/A   Clear
9:33 AM 62.6 °F - 51.8 °F 68% 30.21 in 10.0 mi NNE 4.6 mph - N/A   Clear
9:53 AM 64.4 °F - 51.8 °F 64% 30.20 in 10.0 mi North 4.6 mph - N/A   Clear
10:13 AM 66.2 °F - 51.8 °F 60% 30.20 in 10.0 mi Calm Calm - N/A   Clear
10:33 AM 68.0 °F - 51.8 °F 56% 30.20 in 10.0 mi NNW 3.5 mph - N/A   Clear
10:53 AM 69.8 °F - 51.8 °F 53% 30.20 in 10.0 mi Calm Calm - N/A   Clear
11:13 AM 71.6 °F - 51.8 °F 50% 30.20 in 10.0 mi Calm Calm - N/A   Clear
11:33 AM 71.6 °F - 50.0 °F 46% 30.20 in 10.0 mi NNW 4.6 mph - N/A   Clear
11:53 AM 73.4 °F - 48.2 °F 41% 30.20 in 10.0 mi North 4.6 mph - N/A   Clear
12:13 PM 73.4 °F - 48.2 °F 41% 30.20 in 10.0 mi NE 3.5 mph - N/A   Clear
12:33 PM 73.4 °F - 46.4 °F 38% 30.19 in 10.0 mi NNW 9.2 mph - N/A   Clear
12:53 PM 75.2 °F - 48.2 °F 38% 30.19 in 10.0 mi North 3.5 mph - N/A   Clear
1:13 PM 75.2 °F - 46.4 °F 36% 30.18 in 10.0 mi NNE 5.8 mph - N/A   Clear
1:33 PM 75.2 °F - 44.6 °F 34% 30.18 in 10.0 mi NNW 5.8 mph 24.2 mph N/A   Clear
1:53 PM 75.2 °F - 44.6 °F 34% 30.18 in 10.0 mi NW 8.1 mph - N/A   Clear
2:13 PM 77.0 °F - 46.4 °F 34% 30.17 in 10.0 mi NNW 6.9 mph - N/A   Clear
2:32 PM 75.2 °F - 46.4 °F 36% 30.16 in 10.0 mi WNW 8.1 mph - N/A   Clear
2:53 PM 77.0 °F - 44.6 °F 32% 30.16 in 10.0 mi NW 5.8 mph - N/A   Clear
3:13 PM 77.0 °F - 46.4 °F 34% 30.15 in 10.0 mi North 9.2 mph - N/A   Clear
3:32 PM 77.0 °F - 44.6 °F 32% 30.15 in 10.0 mi Calm Calm - N/A   Clear
3:53 PM 77.0 °F - 44.6 °F 32% 30.15 in 10.0 mi WNW 8.1 mph - N/A   Clear
4:13 PM 77.0 °F - 44.6 °F 32% 30.15 in 10.0 mi WNW 5.8 mph - N/A   Clear
4:32 PM 78.8 °F - 44.6 °F 30% 30.14 in 10.0 mi North 4.6 mph - N/A   Clear
4:53 PM 78.8 °F - 44.6 °F 30% 30.14 in 10.0 mi West 4.6 mph - N/A   Clear
5:13 PM 77.0 °F - 42.8 °F 29% 30.13 in 10.0 mi Calm Calm - N/A   Clear
5:33 PM 78.8 °F - 44.6 °F 30% 30.13 in 10.0 mi Calm Calm - N/A   Clear
5:53 PM 78.8 °F - 44.6 °F 30% 30.12 in 10.0 mi West 5.8 mph - N/A   Clear
6:13 PM 77.0 °F - 44.6 °F 32% 30.12 in 10.0 mi Calm Calm - N/A   Clear
6:33 PM 77.0 °F - 44.6 °F 32% 30.12 in 10.0 mi West 3.5 mph - N/A   Clear
6:53 PM 77.0 °F - 44.6 °F 32% 30.12 in 10.0 mi Calm Calm - N/A   Clear
7:13 PM 75.2 °F - 46.4 °F 36% 30.11 in 10.0 mi Calm Calm - N/A   Clear
7:33 PM 75.2 °F - 48.2 °F 38% 30.11 in 10.0 mi Calm Calm - N/A   Clear
7:53 PM 73.4 °F - 51.8 °F 47% 30.10 in 10.0 mi Calm Calm - N/A   Clear
8:13 PM 68.0 °F - 55.4 °F 64% 30.10 in 10.0 mi ESE 3.5 mph - N/A   Clear
8:33 PM 64.4 °F - 55.4 °F 73% 30.10 in 10.0 mi Calm Calm - N/A   Clear
8:53 PM 62.6 °F - 55.4 °F 77% 30.11 in 10.0 mi East 4.6 mph - N/A   Clear
9:13 PM 62.6 °F - 53.6 °F 72% 30.11 in 10.0 mi ESE 4.6 mph - N/A   Clear
9:33 PM 62.6 °F - 51.8 °F 68% 30.11 in 10.0 mi SE 3.5 mph - N/A   Clear
9:54 PM 59.0 °F - 53.6 °F 82% 30.11 in 10.0 mi SE 3.5 mph - N/A   Clear
10:13 PM 57.2 °F - 53.6 °F 88% 30.12 in 10.0 mi Calm Calm - N/A   Clear
10:33 PM 55.4 °F - 51.8 °F 88% 30.12 in 10.0 mi SE 4.6 mph - N/A   Clear
10:54 PM 55.4 °F - 51.8 °F 88% 30.12 in 10.0 mi SE 5.8 mph - N/A   Clear
11:13 PM 55.4 °F - 51.8 °F 88% 30.12 in 10.0 mi SE 8.1 mph - N/A   Clear
11:33 PM 55.4 °F - 51.8 °F 88% 30.12 in 10.0 mi SE 6.9 mph - N/A   Clear
11:54 PM 55.4 °F - 51.8 °F 88% 30.12 in 10.0 mi SE 6.9 mph - N/A   Clear